GW6850 Weather Reports


time (UTC)temp
F
wind
direction
speed
knots
gust
knots
rain 1hr
in
rain 24hr
in
rain mn
in
humidity
%
barometer
mb
20260505023008 62 49 1.7 1.7 0.00 0.00 0.00 47 1008.5
20260505022508 61 1 1.7 2.6 0.00 0.00 0.00 47 1008.5
20260505022009 62 27 1.7 2.6 0.00 0.00 0.00 48 1008.6
20260505021508 62 60 1.7 1.7 0.00 0.00 0.00 48 1008.6
20260505021008 62 20 1.7 1.7 0.00 0.00 0.00 45 1008.6
20260505020509 62 15 1.7 1.7 0.00 0.00 0.00 45 1008.7
20260505020008 61 1 2.6 4.3 0.00 0.00 0.00 45 1008.7
20260505015508 61 352 2.6 3.5 0.00 0.00 0.00 48 1008.6
20260505015009 61 354 2.6 3.5 0.00 0.00 0.00 51 1008.6
20260505014509 61 20 1.7 2.6 0.00 0.00 0.00 50 1008.5
20260505014008 62 20 1.7 3.5 0.00 0.00 0.00 49 1008.5
20260505013508 62 6 3.5 5.2 0.00 0.00 0.00 48 1008.3
20260505013008 62 6 2.6 6.1 0.00 0.00 0.00 48 1008.3
20260505012508 63 9 3.5 7.0 0.00 0.00 0.00 48 1008.3
20260505012008 63 0 2.6 7.0 0.00 0.00 0.00 47 1008.2
20260505011509 63 0 2.6 4.3 0.00 0.00 0.00 47 1008.2
20260505011008 64 342 4.3 7.0 0.00 0.00 0.00 46 1008.2
20260505010509 64 324 3.5 6.1 0.00 0.00 0.00 45 1008.2
20260505010008 64 349 5.2 7.0 0.00 0.00 0.00 44 1007.9
20260505005509 65 311 5.2 8.7 0.00 0.00 0.00 42 1007.8
20260505005009 65 12 3.5 5.2 0.00 0.00 0.00 40 1007.7
20260505004508 65 6 4.3 7.0 0.00 0.00 0.00 40 1007.5
20260505004009 66 9 3.5 7.0 0.00 0.00 0.00 40 1007.7
20260505003508 67 359 5.2 9.6 0.00 0.00 0.00 39 1007.9
20260505003008 68 339 7.0 9.6 0.00 0.00 0.00 37 1007.8
20260505002509 68 102 3.5 5.2 0.00 0.00 0.00 37 1007.4
20260505002009 68 101 4.3 6.1 0.00 0.00 0.00 38 1007.4
20260505001508 68 136 5.2 7.8 0.00 0.00 0.00 39 1007.4
20260505001008 68 136 6.1 7.8 0.00 0.00 0.00 39 1007.4
20260505000508 68 126 5.2 6.1 0.00 0.00 0.00 39 1007.5
20260505000008 68 120 3.5 6.1 0.00 0.00 0.00 43 1007.7
20260504235508 68 135 3.5 5.2 0.00 0.00 0.00 42 1007.5
20260504235008 68 140 3.5 5.2 0.00 0.00 0.00 42 1007.4
20260504234509 68 141 4.3 6.1 0.00 0.00 0.00 40 1007.4
20260504234010 69 155 3.5 4.3 0.00 0.00 0.00 41 1007.7
20260504233508 69 124 4.3 6.1 0.00 0.00 0.00 40 1007.5
20260504233008 69 140 4.3 6.1 0.00 0.00 0.00 39 1007.5
20260504232509 69 155 4.3 6.1 0.00 0.00 0.00 39 1007.8
20260504232008 69 158 5.2 6.1 0.00 0.00 0.00 38 1007.5
20260504231509 69 161 3.5 6.1 0.00 0.00 0.00 38 1007.5
20260504231008 69 163 4.3 6.1 0.00 0.00 0.00 36 1007.7
20260504230509 69 159 4.3 7.8 0.00 0.00 0.00 37 1007.7
20260504230008 70 168 5.2 9.6 0.00 0.00 0.00 35 1007.5
20260504225511 70 168 5.2 7.0 0.00 0.00 0.00 33 1007.5
20260504225008 70 156 5.2 7.8 0.00 0.00 0.00 34 1007.4
20260504224509 70 176 2.6 4.3 0.00 0.00 0.00 32 1007.5
20260504224009 71 193 1.7 3.5 0.00 0.00 0.00 33 1007.5
20260504223508 71 152 1.7 2.6 0.00 0.00 0.00 34 1007.5
20260504223009 71 218 1.7 3.5 0.00 0.00 0.00 33 1007.4
20260504222508 71 111 0.9 2.6 0.00 0.00 0.00 32 1007.5
20260504222008 71 65 1.7 3.5 0.00 0.00 0.00 30 1007.5
20260504221509 71 76 1.7 3.5 0.00 0.00 0.00 29 1007.5
20260504221009 72 269 3.5 4.3 0.00 0.00 0.00 34 1007.8
20260504220508 71 315 1.7 2.6 0.00 0.00 0.00 32 1007.7
20260504220009 72 347 2.6 4.3 0.00 0.00 0.00 30 1007.8
20260504215509 72 342 3.5 5.2 0.00 0.00 0.00 29 1007.8
20260504215008 72 257 3.5 5.2 0.00 0.00 0.00 32 1007.8
20260504214509 72 295 1.7 2.6 0.00 0.00 0.00 30 1007.9
20260504214009 72 39 1.7 3.5 0.00 0.00 0.00 31 1008.1
20260504213509 71 2 0.9 1.7 0.00 0.00 0.00 30 1008.0
20260504213010 71 282 5.2 7.0 0.00 0.00 0.00 33 1008.3
20260504212508 72 332 5.2 7.8 0.00 0.00 0.00 31 1008.3
20260504212008 71 327 3.5 5.2 0.00 0.00 0.00 32 1008.6
20260504211509 71 347 3.5 5.2 0.00 0.00 0.00 34 1008.6
20260504211008 71 47 3.5 6.1 0.00 0.00 0.00 34 1008.6
20260504210509 70 26 3.5 7.0 0.00 0.00 0.00 35 1008.8
20260504210008 70 7 4.3 7.8 0.00 0.00 0.00 35 1008.9
20260504205508 69 352 4.3 7.0 0.00 0.00 0.00 35 1008.9
20260504205009 69 358 2.6 5.2 0.00 0.00 0.00 36 1009.1
20260504204510 69 358 7.0 10.4 0.00 0.00 0.00 36 1009.3
20260504204008 69 344 7.8 11.3 0.00 0.00 0.00 36 1009.3
20260504203508 68 350 8.7 13.9 0.00 0.00 0.00 37 1009.3
20260504203009 68 339 6.1 11.3 0.00 0.00 0.00 39 1009.4
20260504202508 68 347 8.7 11.3 0.00 0.00 0.00 39 1009.5
20260504202008 70 351 7.8 11.3 0.00 0.00 0.00 38 1009.1
20260504201509 71 325 11.3 16.5 0.00 0.00 0.00 36 1009.5
20260504201009 71 281 5.2 7.0 0.00 0.00 0.00 34 1009.4
20260504200509 71 305 7.8 10.4 0.00 0.00 0.00 33 1009.3
20260504200009 71 269 4.3 6.1 0.00 0.00 0.00 34 1009.4
20260504195508 71 291 6.1 11.3 0.00 0.00 0.00 33 1009.4
20260504195008 70 265 7.0 8.7 0.00 0.00 0.00 35 1009.5
20260504194024 69 290 5.2 7.0 0.00 0.00 0.00 34 1009.6
20260504193509 69 265 7.8 11.3 0.00 0.00 0.00 37 1009.8
20260504193008 69 289 8.7 10.4 0.00 0.00 0.00 36 1009.8
20260504192509 69 295 7.8 9.6 0.00 0.00 0.00 37 1010.0
20260504192008 69 305 7.8 10.4 0.00 0.00 0.00 36 1010.0
20260504191508 69 262 4.3 6.1 0.00 0.00 0.00 40 1010.1
20260504191009 69 326 3.5 6.1 0.00 0.00 0.00 39 1010.2
20260504190509 68 317 6.1 8.7 0.00 0.00 0.00 38 1010.1
20260504190009 68 17 2.6 5.2 0.00 0.00 0.00 38 1010.3
20260504185509 68 322 7.0 10.4 0.00 0.00 0.00 39 1010.4
20260504185009 67 317 5.2 7.8 0.00 0.00 0.00 42 1010.4
20260504184510 67 295 7.8 9.6 0.00 0.00 0.00 38 1010.5
20260504184008 67 285 7.8 10.4 0.00 0.00 0.00 38 1010.6
20260504183509 65 10 0.0 1.7 0.00 0.00 0.00 44 1010.9
20260504183008 66 233 2.6 4.3 0.00 0.00 0.00 41 1011.0
20260504182509 66 342 4.3 7.0 0.00 0.00 0.00 41 1011.1
20260504182009 66 313 6.1 10.4 0.00 0.00 0.00 43 1011.2
20260504181509 65 74 2.6 5.2 0.00 0.00 0.00 47 1011.3
20260504181009 64 349 3.5 4.3 0.00 0.00 0.00 44 1011.3
20260504180508 65 91 1.7 3.5 0.00 0.00 0.00 52 1011.6
20260504180008 65 130 2.6 5.2 0.00 0.00 0.00 43 1011.6
20260504175508 64 129 0.9 1.7 0.00 0.00 0.00 42 1011.7
20260504175009 64 37 1.7 3.5 0.00 0.00 0.00 42 1011.8
20260504174509 65 357 1.7 4.3 0.00 0.00 0.00 43 1011.8
20260504174012 64 240 0.9 1.7 0.00 0.00 0.00 43 1011.9
20260504173508 65 279 5.2 8.7 0.00 0.00 0.00 44 1011.9
20260504173009 64 307 3.5 6.1 0.00 0.00 0.00 46 1012.0
20260504172508 64 331 4.3 6.1 0.00 0.00 0.00 44 1012.1
20260504172008 63 308 4.3 5.2 0.00 0.00 0.00 46 1012.2
20260504171508 63 332 3.5 4.3 0.00 0.00 0.00 48 1012.4
20260504171008 64 326 2.6 3.5 0.00 0.00 0.00 45 1012.4
20260504170508 64 346 2.6 3.5 0.00 0.00 0.00 44 1012.2
20260504151009 61 135 4.3 5.2 0.00 0.00 0.00 50 1012.9
20260504150508 61 104 3.5 6.1 0.00 0.00 0.00 50 1012.9
20260504141009 60 125 5.2 7.8 0.00 0.00 0.00 54 1012.9
20260504140509 59 117 5.2 7.8 0.00 0.00 0.00 55 1012.9
20260504110508 57 138 3.5 5.2 0.00 0.00 0.00 57 1012.6
20260504100509 60 142 5.2 7.0 0.00 0.00 0.00 44 1012.8
20260504081509 55 99 1.7 1.7 0.00 0.00 0.00 42 1012.0
20260504081009 55 28 0.0 0.9 0.00 0.00 0.00 41 1011.9
20260504080508 55 83 0.9 0.9 0.00 0.00 0.00 37 1011.9
20260504050513 53 90 1.7 1.7 0.00 0.00 0.00 40 1010.9
20260504050011 53 56 0.9 0.9 0.00 0.00 0.00 39 1010.9
20260504045508 52 55 0.9 1.7 0.00 0.00 0.00 38 1010.9
20260504045008 52 284 0.0 0.9 0.00 0.00 0.00 41 1010.9
20260504044509 52 73 1.7 1.7 0.00 0.00 0.00 42 1010.9
20260504044008 52 70 0.0 0.9 0.00 0.00 0.00 41 1010.9
20260504043508 53 56 0.9 0.9 0.00 0.00 0.00 42 1010.9
20260504043008 53 87 0.9 1.7 0.00 0.00 0.00 39 1010.9
20260504042509 52 55 0.9 0.9 0.00 0.00 0.00 38 1010.9
20260504042008 52 63 2.6 2.6 0.00 0.00 0.00 42 1010.9
20260504041508 53 43 0.9 0.9 0.00 0.00 0.00 43 1010.9
20260504041009 53 342 1.7 2.6 0.00 0.00 0.00 41 1010.9
20260504040508 53 56 1.7 2.6 0.00 0.00 0.00 41 1011.0
20260504040009 52 58 1.7 2.6 0.00 0.00 0.00 43 1011.0
20260504035508 53 338 0.9 1.7 0.00 0.00 0.00 44 1011.0
20260504035009 53 19 1.7 2.6 0.00 0.00 0.00 49 1010.9
20260504034509 54 330 0.9 1.7 0.00 0.00 0.00 48 1010.9
20260504034008 55 70 1.7 2.6 0.00 0.00 0.00 47 1010.9
20260504033508 55 79 1.7 1.7 0.00 0.00 0.00 42 1010.8
20260504033013 55 68 1.7 2.6 0.00 0.00 0.00 43 1010.8
20260504032509 55 80 0.0 0.9 0.00 0.00 0.00 44 1010.8
20260504032008 55 58 1.7 1.7 0.00 0.00 0.00 45 1010.9
20260504031508 55 61 1.7 2.6 0.00 0.00 0.00 44 1010.9
20260504031009 56 41 0.0 0.9 0.00 0.00 0.00 46 1010.8
20260504030508 57 3 0.0 0.9 0.00 0.00 0.00 47 1010.8
20260504030008 57 74 1.7 1.7 0.00 0.00 0.00 46 1010.6
20260504025508 58 75 0.9 1.7 0.00 0.00 0.00 44 1010.6
20260504025008 60 73 1.7 2.6 0.00 0.00 0.00 41 1010.5
20260504024508 61 326 0.0 0.0 0.00 0.00 0.00 40 1010.4
20260504024009 62 313 0.0 0.9 0.00 0.00 0.00 39 1010.4
20260504023508 63 41 0.0 0.9 0.00 0.00 0.00 37 1010.3